Flag for South Africa Weather past 2 weeks in Durban, South Africa

Now
75 °F

Passing clouds.


Feels Like: 77 °F
Forecast: 67 / 72 °F
Wind: 12 mph from South

Location: King Shaka International Airport

Current Time: Apr 26, 2015 at 2:11:54 PM

Latest Report: Apr 26, 2015 at 1:00 PM


Visibility: N/A

Pressure: 29.98 "Hg

Humidity: 69%

Dew point: 64 °F

Location of DurbanLocation

Historic Weather in Durban — Graph

°F

Durban temperature yesterday

Maximum temperature yesterday: 77 °F (at 2:00 PM)
Minimum temperature yesterday: 63 °F (at 12:00 AM)
Average temperature yesterday: 70 °F

Past Weeks' High & Low Weather Summary

 TemperatureHumidityPressure
High84 °F (Apr 22, 1:00 PM)94% (Apr 12, 6:00 AM)30.33 "Hg (Apr 12, 6:00 AM)
Low55 °F (Apr 18, 2:00 AM)36% (Apr 18, 11:00 AM)29.86 "Hg (Apr 14, 2:00 PM)
Average68 °F74%30.10 "Hg
* Reported Apr 12 6:00 AM — Apr 26 1:00 PM, Durban, Weather by CustomWeather, © 2015

Note: Actual official high and low records may vary slightly from our data, if they occured in-between our weather recording intervals... More about our weather records

Advertising

Durban weather history for previous 24 hours

 ConditionsComfort  
Time TempWeatherWind HumidityBarometerVisibility
1:00 PM
Sun, Apr 26
75 °FPassing clouds.12 mph69%29.98 "HgN/A
12:00 PM75 °FSunny.9 mph74%30.01 "Hg10 mi
11:00 AM73 °FPassing clouds.6 mph74%30.01 "HgN/A
10:00 AM75 °FPassing clouds.5 mph65%30.01 "HgN/A
9:00 AM72 °FSunny.1 mph73%30.01 "Hg10 mi
8:00 AM66 °FSunny.2 mph94%30.01 "Hg10 mi
7:00 AM59 °FFog.1 mph94%29.98 "Hg3 mi
6:00 AM59 °FFog.1 mph94%29.98 "Hg1 mi
5:00 AM61 °FFog.1 mph94%29.98 "Hg2 mi
4:00 AM61 °FFog.3 mph94%29.98 "Hg2 mi
3:00 AM63 °FClear.3 mph94%30.01 "Hg4 mi
2:00 AM64 °FClear.2 mph94%30.01 "Hg6 mi
1:00 AM66 °FClear.3 mph94%30.01 "Hg10 mi
12:00 AM66 °FClear.2 mph94%30.04 "Hg5 mi
11:00 PM
Sat, Apr 25
68 °FClear.3 mph88%30.07 "Hg10 mi
10:00 PM66 °FClear.5 mph94%30.07 "Hg6 mi
9:00 PM70 °FClear.2 mph88%30.07 "Hg10 mi
8:00 PM72 °FClear.2 mph88%30.07 "Hg10 mi
7:00 PM73 °FClear.6 mph83%30.07 "Hg10 mi
6:00 PM73 °FPassing clouds.8 mph89%30.04 "HgN/A
5:00 PM75 °FClear.12 mph83%30.04 "Hg10 mi
4:00 PM77 °FSunny.12 mph74%30.04 "Hg10 mi
3:00 PM77 °FSunny.13 mph74%30.04 "Hg10 mi
2:00 PM77 °FSunny.10 mph69%30.04 "Hg10 mi
Weather by CustomWeather, © 2015

See weather overviewHow to use our weather pages